Ramona, CA

3:36 AM PST on February 22, 2017 (GMT -0800)
Ramona

Weather History for KRNM - September, 2013

Change the Weather History Date:

Saturday, September 28, 2013

  Actual Average Record
Temperature  
Mean Temperature 64 °F 67 °F  
Max Temperature 88 °F 83 °F 101 °F (1999)
Min Temperature 39 °F 51 °F 39 °F (2013)
Degree Days  
Heating Degree Days 1 1  
Month to date heating degree days 14 9  
Since 1 July heating degree days 15 12  
Cooling Degree Days 0 4  
Month to date cooling degree days 218 173  
Year to date cooling degree days 882 786  
Growing Degree Days 14 (Base 50)    
Moisture  
Dew Point 27 °F    
Average Humidity 35    
Maximum Humidity 62    
Minimum Humidity 8    
Precipitation  
Precipitation 0.00 in 0.01 in 0.01 in (1998)
Month to date precipitation 0.00 0.28  
Year to date precipitation 4.59 11.89  
Since 1 July precipitation 0.09  
Snow  
Snow 0.00 in - - ()
Month to date snowfall 0.0  
Year to date snowfall 0.0  
Snow Depth 0.00 in    
Sea Level Pressure  
Sea Level Pressure 30.00 in    
Wind  
Wind Speed 5 mph (WNW)    
Max Wind Speed 16 mph    
Max Gust Speed 21 mph    
Visibility 10 miles    
Events      
T = Trace of Precipitation, MM = Missing Value Source: NWS Daily Summary

Daily Weather History Graph

Daily Weather History Graph

Search for Another Location

Airport or City:

Trip Planner

Search our weather history database for the weather conditions in past years. The results will help you decide how hot, cold, wet, or windy it might be!

Date:

Astronomy

Sep. 28, 2013 Rise Set
Actual Time 6:40 AM PDT 6:35 PM PDT
Civil Twilight 6:15 AM PDT 7:00 PM PDT
Nautical Twilight 5:46 AM PDT 7:29 PM PDT
Astronomical Twilight 5:17 AM PDT 7:57 PM PDT
Moon 12:47 AM PDT (9/28) 2:42 PM PDT (9/28)
Length of Visible Light 12h 45m
Length of Day
11h 55m
Waning Crescent, 35% of the Moon is Illuminated
Sep 28
Waning Crescent
Oct 4
New
Oct 11
First Quarter
Oct 18
Full
Oct 26
Last Quarter

Hourly Weather History & Observations

Time (PDT) Temp. Windchill Dew Point Humidity Pressure Visibility Wind Dir Wind Speed Gust Speed Precip Events Conditions
12:53 AM 44.1 °F - 30.0 °F 58% 30.00 in 10.0 mi Calm Calm - N/A   Clear
1:53 AM 45.0 °F 43.5 °F 30.9 °F 58% 29.99 in 10.0 mi East 3.5 mph - N/A   Clear
2:53 AM 46.0 °F - 30.9 °F 56% 29.99 in 10.0 mi Calm Calm - N/A   Clear
3:53 AM 44.1 °F - 30.0 °F 58% 29.98 in 10.0 mi Calm Calm - N/A   Clear
4:53 AM 43.0 °F - 30.9 °F 62% 29.99 in 10.0 mi Calm Calm - N/A   Clear
5:53 AM 42.1 °F - 28.0 °F 58% 29.99 in 10.0 mi Calm Calm - N/A   Clear
6:53 AM 42.1 °F - 28.9 °F 60% 30.01 in 10.0 mi Calm Calm - N/A   Clear
7:53 AM 57.0 °F - 28.9 °F 34% 30.02 in 10.0 mi Calm Calm - N/A   Clear
8:53 AM 77.0 °F - 19.9 °F 12% 30.00 in 10.0 mi North 10.4 mph - N/A   Clear
9:53 AM 81.0 °F - 17.1 °F 9% 30.00 in 10.0 mi East 6.9 mph - N/A   Clear
10:53 AM 82.0 °F - 17.1 °F 9% 30.01 in 10.0 mi SSE 5.8 mph - N/A   Clear
11:53 AM 84.0 °F - 16.0 °F 8% 29.99 in 10.0 mi Variable 4.6 mph - N/A   Clear
12:53 PM 87.1 °F - 19.0 °F 8% 29.98 in 10.0 mi WNW 6.9 mph - N/A   Clear
1:53 PM 84.0 °F - 25.0 °F 12% 29.96 in 10.0 mi WSW 11.5 mph 20.7 mph N/A   Clear
2:53 PM 82.9 °F - 28.0 °F 14% 29.96 in 10.0 mi West 11.5 mph - N/A   Clear
3:53 PM 84.0 °F - 27.0 °F 13% 29.96 in 10.0 mi WNW 12.7 mph - N/A   Clear
4:53 PM 81.0 °F - 28.9 °F 15% 29.96 in 10.0 mi West 12.7 mph - N/A   Clear
5:53 PM 75.9 °F - 33.1 °F 21% 29.98 in 10.0 mi WSW 9.2 mph - N/A   Clear
6:53 PM 66.0 °F - 30.9 °F 27% 30.01 in 10.0 mi Calm Calm - N/A   Clear
7:53 PM 64.0 °F - 32.0 °F 30% 30.01 in 10.0 mi ENE 3.5 mph - N/A   Clear
8:53 PM 57.9 °F - 30.0 °F 35% 30.02 in 10.0 mi Calm Calm - N/A   Clear
9:53 PM 55.0 °F - 30.9 °F 40% 30.04 in 10.0 mi Calm Calm - N/A   Clear
10:53 PM 53.1 °F - 30.9 °F 43% 30.04 in 10.0 mi Calm Calm - N/A   Clear
11:53 PM 51.1 °F - 32.0 °F 48% 30.05 in 10.0 mi Calm Calm - N/A   Clear